Location: *
(49.9853°N, 3.5569°E)
Time: 15:07:24
(UTC+00:00)

FREGAT/IRIS - Pass Details

Date: 22 September 2019
Orbit: 346 x 350 km, 97.0° (Epoch: 21 October)

Event Time Altitude Azimuth Distance (km) Brightness Sun altitude
Exits shadow 18:58:14 - 167° (SSE) 1,528 5.3 -12.5°
Reaches altitude 10° 18:58:42 10° 167° (SSE) 1,324 5.0 -12.6°
Maximum altitude 19:01:31 89° 263° (W) 362 2.4 -13.0°
Drops below altitude 10° 19:04:22 10° 347° (NNW) 1,340 5.7 -13.5°
Sets 19:06:19 0° 348° (NNW) 2,192 6.8 -13.8°
